Regional Weather Roundup
Issued by NWS

Home | Current Version | Previous Version | Graphics & Text | Print | Product List | Glossary On
Versions: 1 2 3 4 5 6 7 8 9 10 11 12 13 14 15 16 17 18 19 20 21 22 23 24 25 26 27 28 29 30 31 32 33 34 35 36 37 38 39 40 41 42 43 44 45 46 47 48 49 50
000
ASUS43 KOAX 281002
RWRNE

WEATHER ROUNDUP FOR NEBRASKA
NATIONAL WEATHER SERVICE OMAHA NE
500 AM CDT THU AUG 28 2014

NOTES: SATELLITE DATA IS BEING USED TO AUGMENT CLOUD COVER ABOVE
       12000 FEET.
       "FAIR" INDICATES FEW OR NO CLOUDS BELOW 12,000 FEET WITH NO
       SIGNIFICANT WEATHER AND/OR OBSTRUCTIONS TO VISIBILITY.

  * THESE STATIONS DO NOT REPORT WEATHER SUCH AS RAIN...SNOW OR FOG.

NEZ001>004-019>022-054>056-281100-
NEBRASKA PANHANDLE

CITY           SKY/WX    TMP DP  RH WIND       PRES   REMARKS
SCOTTSBLUFF    MOCLDY    58  58 100 NW6       30.04S
ALLIANCE       CLOUDY    63  61  93 NW5       30.02F
CHADRON        LGT RAIN  63  62  97 NW6       30.00F FOG
KIMBALL        CLOUDY    58  52  81 W12G17    30.06F
SIDNEY         MOCLDY    61  58  90 W14       30.04R
$$

NEZ057>060-069>072-079>082-281100-
SOUTHWEST NEBRASKA

CITY           SKY/WX    TMP DP  RH WIND       PRES   REMARKS
NORTH PLATTE   LGT RAIN  64  62  93 E9        29.92F
IMPERIAL       PTCLDY    59  57  93 CALM      29.96F
LEXINGTON      DRIZZLE   67  66  96 CALM      29.94F
MCCOOK         MOCLDY    62  61  96 SE7       29.93F
OGALLALA       CLOUDY    58  58  97 CALM      29.98F
$$

NEZ005>010-023>029-035>040-094-281100-
NORTH CENTRAL NEBRASKA

CITY           SKY/WX    TMP DP  RH WIND       PRES   REMARKS
VALENTINE      CLOUDY    68  68 100 SE5       29.94F
AINSWORTH      CLOUDY    67  67  98 CALM      29.94F
BROKEN BOW     CLOUDY    67  65  93 S3        29.95S
O`NEILL        HVY RAIN  69  69  98 SE10      29.95S
ORD            LGT RAIN  69  67  93 SE8       29.93F
THEDFORD       CLOUDY    66  64  91 SW3       29.97F
$$

NEZ041-046>049-061>064-073>077-083>087-281100-
SOUTH CENTRAL NEBRASKA

CITY           SKY/WX    TMP DP  RH WIND       PRES   REMARKS
GRAND ISLAND   CLOUDY    68  66  93 SE3       29.96S
AURORA         CLOUDY    67  67 100 CALM      29.96R
HASTINGS       CLOUDY    67  64  90 CALM      29.97R
HEBRON         MOCLDY    70  66  89 CALM      29.93F
HOLDREGE       DRIZZLE   66  64  93 CALM      29.95S
KEARNEY *      CLOUDY    66  64  94 SE9       29.94F
YORK           CLOUDY    66 N/A N/A CALM      29.96F
$$

NEZ011>018-030>034-042>045-281100-
NORTHEAST NEBRASKA

CITY           SKY/WX    TMP DP  RH WIND       PRES   REMARKS
NORFOLK        RAIN      69  67  93 SE12      29.96F FOG
ALBION         LGT RAIN  69  67  93 S9        29.97R
BLAIR          TSTM      70  68  93 E3        29.99F
FREMONT        HVY RAIN  70  69  95 E6        29.98F
TEKAMAH        HVY RAIN  69  68  96 E5        29.98F FOG
WAYNE          RAIN      68  67  96 SE10      29.98F
$$

NEZ050>053-065>068-078-088>093-281100-
SOUTHEAST NEBRASKA

CITY           SKY/WX    TMP DP  RH WIND       PRES   REMARKS
LINCOLN        LGT RAIN  72  69  90 SE14      29.93F
OMAHA EPPLEY   TSTM      71  68  90 SE13      29.98F
BEATRICE       CLOUDY    72  72  99 SE9       29.94F
FALLS CITY     CLOUDY    73  72  96 E8        29.95S
NEBRASKA CITY  CLOUDY    71  71 100 CALM      29.97S
PLATTSMOUTH    TSTM      71  68  92 CALM      29.97F
$$

NEZ044-045-051>053-067-281100-
OMAHA AREA

CITY           SKY/WX    TMP DP  RH WIND       PRES   REMARKS
OMAHA EPPLEY   TSTM      71  68  90 SE13      29.98F
BLAIR          TSTM      70  68  93 E3        29.99F
FREMONT        HVY RAIN  70  69  95 E6        29.98F
MILLARD        TSTM      71  69  94 E3        29.97F
OFFUTT AFB     TSTM      71  71 100 E7        29.97F
PLATTSMOUTH    TSTM      71  68  92 CALM      29.97F
WAHOO          HVY RAIN  70  67  91 E13       29.94F
$$



USA.gov is the U.S. government's official web portal to all federal, state and local government web resources and services.